Location: Chaves
(41.7330°N, 7.4670°W)
Time: 02:47:57
(UTC+01:00)

ISS - Visible Passes

Search period start: 28 June 2017 00:00
Search period end: 08 July 2017 00:00
Orbit: 401 x 408 km, 51.6° (Epoch: 28 June)

Date Brightness Start Highest point End Pass type
(mag) Time Alt. Az. Time Alt. Az. Time Alt. Az.
03 Jul -1.1 05:23:53 10° SSE 05:25:07 12° SE 05:26:20 10° ESE visible
05 Jul -2.3 05:13:54 10° SSW 05:16:43 27° SE 05:19:32 10° ENE visible
06 Jul -1.5 04:23:17 12° SSE 04:24:36 15° SE 04:26:30 10° E visible
07 Jul -3.7 05:05:41 14° SW 05:08:25 67° SE 05:11:40 10° ENE visible
